User: anonymous   Login
Location: La Pernelle
(49.6188°N, 1.2999°W)
Time: 02:55:46
(UTC+00:00)
Language:

Cosmos 2263 Rocket - Orbit

View from above orbital plane
View from above orbital plane
View from above satellite
View from above satellite

Ground track
Ground track

The orbit data is extracted from the following two-line orbital elements,

1 22803U 93059B   21260.33252486  .00000092  00000-0  69960-4 0  9990
2 22803  70.9899 216.4165 0017352 187.9543 172.1308 14.16845199448016
Epoch (UTC): 17 September 2021 07:58:50
Eccentricity: 0.0017352
inclination: 70.9899°
perigee height: 823 km
apogee height: 848 km
right ascension of ascending node: 216.4165°
argument of perigee: 187.9543°
revolutions per day: 14.16845199
mean anomaly at epoch: 172.1308°
orbit number at epoch: 44801

The dashed part of the orbit path shows where the satellite is in the earth's shadow,  

DLR